owner,sensor,date,latitude,longitude,vertical_datum,wind_speed,wind_to_direction,wind_speed_of_gust,qcFlag 
TCOON,ioos:station:TCOON:009:1,2013-11-01T00:00:00Z,27.8398,-97.0727,0.0,0.7,130.0,0.8,'11111222,11111222,11111222' 
TCOON,ioos:station:TCOON:009:1,2013-11-01T00:06:00Z,27.8398,-97.0727,0.0,0.5,117.0,0.7,'11111222,11111222,11111222' 
TCOON,ioos:station:TCOON:009:1,2013-11-01T00:12:00Z,27.8398,-97.0727,0.0,0.5,88.0,0.7,'11111222,11111222,11111222' 
TCOON,ioos:station:TCOON:009:1,2013-11-01T00:18:00Z,27.8398,-97.0727,0.0,0.8,57.0,1.0,'11111222,11111222,11111222' 
TCOON,ioos:station:TCOON:009:1,2013-11-01T00:24:00Z,27.8398,-97.0727,0.0,1.1,60.0,1.2,'11111222,11111222,11111222' 
TCOON,ioos:station:TCOON:009:1,2013-11-01T00:30:00Z,27.8398,-97.0727,0.0,1.1,41.0,1.2,'11111222,11111222,11111222' 
TCOON,ioos:station:TCOON:009:1,2013-11-01T00:36:00Z,27.8398,-97.0727,0.0,2.1,40.0,2.1,'1111122,1111122,1111122' 
TCOON,ioos:station:TCOON:009:1,2013-11-01T00:42:00Z,27.8398,-97.0727,0.0,2.3,45.0,3.0,'11111222,11111222,11111222' 
TCOON,ioos:station:TCOON:009:1,2013-11-01T00:48:00Z,27.8398,-97.0727,0.0,3.3,38.0,4.3,'11111222,11111222,11111222' 
TCOON,ioos:station:TCOON:009:1,2013-11-01T00:54:00Z,27.8398,-97.0727,0.0,3.6,30.0,4.6,'1111122,1111122,1111122' 
TCOON,ioos:station:TCOON:009:1,2013-11-01T01:00:00Z,27.8398,-97.0727,0.0,3.4,24.0,4.0,'11111222,11111222,11111222' 
TCOON,ioos:station:TCOON:009:1,2013-11-01T01:06:00Z,27.8398,-97.0727,0.0,3.0,33.0,3.8,'11111222,11111222,11111222' 
TCOON,ioos:station:TCOON:009:1,2013-11-01T01:12:00Z,27.8398,-97.0727,0.0,3.3,36.0,3.7,'11111222,11111222,11111222' 
TCOON,ioos:station:TCOON:009:1,2013-11-01T01:18:00Z,27.8398,-97.0727,0.0,3.5,42.0,4.5,'11111222,11111222,11111222' 
TCOON,ioos:station:TCOON:009:1,2013-11-01T01:24:00Z,27.8398,-97.0727,0.0,3.9,47.0,4.6,'11111222,11111222,11111222' 
TCOON,ioos:station:TCOON:009:1,2013-11-01T01:30:00Z,27.8398,-97.0727,0.0,4.2,55.0,5.0,'11111222,11111222,11111222' 
TCOON,ioos:station:TCOON:009:1,2013-11-01T01:36:00Z,27.8398,-97.0727,0.0,3.4,69.0,4.8,'11111222,11111222,11111222' 
TCOON,ioos:station:TCOON:009:1,2013-11-01T01:42:00Z,27.8398,-97.0727,0.0,2.8,71.0,3.8,'11111222,11111222,11111222' 
TCOON,ioos:station:TCOON:009:1,2013-11-01T01:48:00Z,27.8398,-97.0727,0.0,3.1,60.0,4.1,'1111122,1111122,1111122' 
TCOON,ioos:station:TCOON:009:1,2013-11-01T01:54:00Z,27.8398,-97.0727,0.0,3.2,62.0,3.7,'11111222,11111222,11111222' 
TCOON,ioos:station:TCOON:009:1,2013-11-01T02:00:00Z,27.8398,-97.0727,0.0,2.7,67.0,3.8,'11111222,11111222,11111222' 
TCOON,ioos:station:TCOON:009:1,2013-11-01T02:06:00Z,27.8398,-97.0727,0.0,3.1,61.0,3.4,'11111222,11111222,11111222' 
TCOON,ioos:station:TCOON:009:1,2013-11-01T02:12:00Z,27.8398,-97.0727,0.0,3.6,63.0,3.9,'11111222,11111222,11111222' 
TCOON,ioos:station:TCOON:009:1,2013-11-01T02:18:00Z,27.8398,-97.0727,0.0,3.0,72.0,4.2,'11111222,11111222,11111222' 
TCOON,ioos:station:TCOON:009:1,2013-11-01T02:24:00Z,27.8398,-97.0727,0.0,3.0,71.0,3.5,'11111222,11111222,11111222' 
TCOON,ioos:station:TCOON:009:1,2013-11-01T02:30:00Z,27.8398,-97.0727,0.0,3.7,65.0,4.4,'11111222,11111222,11111222' 
TCOON,ioos:station:TCOON:009:1,2013-11-01T02:36:00Z,27.8398,-97.0727,0.0,3.1,70.0,4.6,'1111122,1111122,1111122' 
TCOON,ioos:station:TCOON:009:1,2013-11-01T02:42:00Z,27.8398,-97.0727,0.0,3.3,71.0,4.0,'11111222,11111222,11111222' 
TCOON,ioos:station:TCOON:009:1,2013-11-01T02:48:00Z,27.8398,-97.0727,0.0,3.1,67.0,3.9,'11111222,11111222,11111222' 
TCOON,ioos:station:TCOON:009:1,2013-11-01T02:54:00Z,27.8398,-97.0727,0.0,4.6,63.0,5.2,'11111222,11111222,11111222' 
TCOON,ioos:station:TCOON:009:1,2013-11-01T03:00:00Z,27.8398,-97.0727,0.0,3.1,68.0,5.0,'11111222,11111222,11111222' 
TCOON,ioos:station:TCOON:009:1,2013-11-01T03:06:00Z,27.8398,-97.0727,0.0,3.7,71.0,4.9,'11111222,11111222,11111222' 
TCOON,ioos:station:TCOON:009:1,2013-11-01T03:12:00Z,27.8398,-97.0727,0.0,3.8,76.0,4.9,'11111222,11111222,11111222' 
TCOON,ioos:station:TCOON:009:1,2013-11-01T03:18:00Z,27.8398,-97.0727,0.0,4.3,70.0,5.7,'11111222,11111222,11111222' 
TCOON,ioos:station:TCOON:009:1,2013-11-01T03:24:00Z,27.8398,-97.0727,0.0,3.6,72.0,5.1,'11111222,11111222,11111222' 
TCOON,ioos:station:TCOON:009:1,2013-11-01T03:30:00Z,27.8398,-97.0727,0.0,3.9,70.0,4.8,'11111222,11111222,11111222' 
TCOON,ioos:station:TCOON:009:1,2013-11-01T03:36:00Z,27.8398,-97.0727,0.0,4.3,74.0,5.1,'11111222,11111222,11111222' 
TCOON,ioos:station:TCOON:009:1,2013-11-01T03:42:00Z,27.8398,-97.0727,0.0,3.7,74.0,4.9,'11111222,11111222,11111222' 
TCOON,ioos:station:TCOON:009:1,2013-11-01T03:48:00Z,27.8398,-97.0727,0.0,3.6,70.0,4.6,'1111122,1111122,1111122' 
TCOON,ioos:station:TCOON:009:1,2013-11-01T03:54:00Z,27.8398,-97.0727,0.0,3.9,76.0,5.0,'11111222,11111222,11111222' 
TCOON,ioos:station:TCOON:009:1,2013-11-01T04:00:00Z,27.8398,-97.0727,0.0,4.0,67.0,5.0,'11111222,11111222,11111222' 
TCOON,ioos:station:TCOON:009:1,2013-11-01T04:06:00Z,27.8398,-97.0727,0.0,3.5,72.0,4.9,'11111222,11111222,11111222' 
TCOON,ioos:station:TCOON:009:1,2013-11-01T04:12:00Z,27.8398,-97.0727,0.0,4.1,70.0,4.8,'11111222,11111222,11111222' 
TCOON,ioos:station:TCOON:009:1,2013-11-01T04:18:00Z,27.8398,-97.0727,0.0,3.9,78.0,4.8,'11111222,11111222,11111222' 
TCOON,ioos:station:TCOON:009:1,2013-11-01T04:24:00Z,27.8398,-97.0727,0.0,4.1,70.0,5.1,'1111122,1111122,1111122' 
TCOON,ioos:station:TCOON:009:1,2013-11-01T04:30:00Z,27.8398,-97.0727,0.0,4.0,66.0,5.9,'11111222,11111222,11111222' 
TCOON,ioos:station:TCOON:009:1,2013-11-01T04:36:00Z,27.8398,-97.0727,0.0,4.4,65.0,6.3,'11111222,11111222,11111222' 
TCOON,ioos:station:TCOON:009:1,2013-11-01T04:42:00Z,27.8398,-97.0727,0.0,4.9,61.0,6.0,'11111222,11111222,11111222' 
TCOON,ioos:station:TCOON:009:1,2013-11-01T04:48:00Z,27.8398,-97.0727,0.0,4.6,62.0,6.1,'11111222,11111222,11111222' 
TCOON,ioos:station:TCOON:009:1,2013-11-01T04:54:00Z,27.8398,-97.0727,0.0,4.8,66.0,6.2,'11111222,11111222,11111222' 
TCOON,ioos:station:TCOON:009:1,2013-11-01T05:00:00Z,27.8398,-97.0727,0.0,5.6,62.0,6.1,'11111222,11111222,11111222' 
TCOON,ioos:station:TCOON:009:1,2013-11-01T05:06:00Z,27.8398,-97.0727,0.0,4.4,67.0,6.8,'11111222,11111222,11111222' 
TCOON,ioos:station:TCOON:009:1,2013-11-01T05:12:00Z,27.8398,-97.0727,0.0,4.6,69.0,5.6,'11111222,11111222,11111222' 
TCOON,ioos:station:TCOON:009:1,2013-11-01T05:18:00Z,27.8398,-97.0727,0.0,4.1,67.0,5.3,'11111222,11111222,11111222' 
TCOON,ioos:station:TCOON:009:1,2013-11-01T05:24:00Z,27.8398,-97.0727,0.0,4.6,62.0,5.1,'11111222,11111222,11111222' 
TCOON,ioos:station:TCOON:009:1,2013-11-01T05:30:00Z,27.8398,-97.0727,0.0,5.1,59.0,5.8,'11111222,11111222,11111222' 
TCOON,ioos:station:TCOON:009:1,2013-11-01T05:36:00Z,27.8398,-97.0727,0.0,4.6,60.0,5.7,'1111122,1111122,1111122' 
TCOON,ioos:station:TCOON:009:1,2013-11-01T05:42:00Z,27.8398,-97.0727,0.0,5.0,57.0,5.6,'11111222,11111222,11111222' 
TCOON,ioos:station:TCOON:009:1,2013-11-01T05:48:00Z,27.8398,-97.0727,0.0,4.1,70.0,5.7,'1111122,1111122,1111122' 
TCOON,ioos:station:TCOON:009:1,2013-11-01T05:54:00Z,27.8398,-97.0727,0.0,4.7,61.0,5.4,'11111222,11111222,11111222' 
TCOON,ioos:station:TCOON:009:1,2013-11-01T06:00:00Z,27.8398,-97.0727,0.0,3.8,70.0,5.6,'11111222,11111222,11111222' 
TCOON,ioos:station:TCOON:009:1,2013-11-01T06:06:00Z,27.8398,-97.0727,0.0,4.7,61.0,5.9,'11111222,11111222,11111222' 
TCOON,ioos:station:TCOON:009:1,2013-11-01T06:12:00Z,27.8398,-97.0727,0.0,5.0,59.0,6.0,'11111222,11111222,11111222' 
TCOON,ioos:station:TCOON:009:1,2013-11-01T06:18:00Z,27.8398,-97.0727,0.0,4.5,57.0,6.2,'11111222,11111222,11111222' 
TCOON,ioos:station:TCOON:009:1,2013-11-01T06:24:00Z,27.8398,-97.0727,0.0,3.9,51.0,4.5,'11111222,11111222,11111222' 
TCOON,ioos:station:TCOON:009:1,2013-11-01T06:30:00Z,27.8398,-97.0727,0.0,5.1,61.0,5.8,'11111222,11111222,11111222' 
TCOON,ioos:station:TCOON:009:1,2013-11-01T06:36:00Z,27.8398,-97.0727,0.0,4.5,64.0,5.3,'11111222,11111222,11111222' 
TCOON,ioos:station:TCOON:009:1,2013-11-01T06:42:00Z,27.8398,-97.0727,0.0,3.6,70.0,4.6,'1111122,1111122,1111122' 
TCOON,ioos:station:TCOON:009:1,2013-11-01T06:48:00Z,27.8398,-97.0727,0.0,3.7,73.0,5.0,'11111222,11111222,11111222' 
TCOON,ioos:station:TCOON:009:1,2013-11-01T06:54:00Z,27.8398,-97.0727,0.0,3.8,70.0,4.9,'11111222,11111222,11111222' 
TCOON,ioos:station:TCOON:009:1,2013-11-01T07:00:00Z,27.8398,-97.0727,0.0,4.8,56.0,6.0,'11111222,11111222,11111222' 
TCOON,ioos:station:TCOON:009:1,2013-11-01T07:06:00Z,27.8398,-97.0727,0.0,4.0,55.0,5.0,'11111222,11111222,11111222' 
TCOON,ioos:station:TCOON:009:1,2013-11-01T07:12:00Z,27.8398,-97.0727,0.0,3.7,66.0,4.9,'11111222,11111222,11111222' 
TCOON,ioos:station:TCOON:009:1,2013-11-01T07:18:00Z,27.8398,-97.0727,0.0,5.0,57.0,5.9,'11111222,11111222,11111222' 
TCOON,ioos:station:TCOON:009:1,2013-11-01T07:24:00Z,27.8398,-97.0727,0.0,4.5,59.0,5.1,'11111222,11111222,11111222' 
TCOON,ioos:station:TCOON:009:1,2013-11-01T07:30:00Z,27.8398,-97.0727,0.0,4.6,59.0,5.2,'11111222,11111222,11111222' 
TCOON,ioos:station:TCOON:009:1,2013-11-01T07:36:00Z,27.8398,-97.0727,0.0,4.5,60.0,5.6,'11111222,11111222,11111222' 
TCOON,ioos:station:TCOON:009:1,2013-11-01T07:42:00Z,27.8398,-97.0727,0.0,3.8,64.0,4.6,'11111222,11111222,11111222' 
TCOON,ioos:station:TCOON:009:1,2013-11-01T07:48:00Z,27.8398,-97.0727,0.0,3.6,60.0,4.1,'1111122,1111122,1111122' 
TCOON,ioos:station:TCOON:009:1,2013-11-01T07:54:00Z,27.8398,-97.0727,0.0,3.3,61.0,4.1,'11111222,11111222,11111222' 
TCOON,ioos:station:TCOON:009:1,2013-11-01T08:00:00Z,27.8398,-97.0727,0.0,2.8,64.0,4.1,'11111222,11111222,11111222' 
TCOON,ioos:station:TCOON:009:1,2013-11-01T08:06:00Z,27.8398,-97.0727,0.0,3.6,58.0,4.5,'11111222,11111222,11111222' 
TCOON,ioos:station:TCOON:009:1,2013-11-01T08:12:00Z,27.8398,-97.0727,0.0,3.6,50.0,4.1,'11111222,11111222,11111222' 
TCOON,ioos:station:TCOON:009:1,2013-11-01T08:18:00Z,27.8398,-97.0727,0.0,3.1,46.0,4.1,'11111222,11111222,11111222' 
TCOON,ioos:station:TCOON:009:1,2013-11-01T08:24:00Z,27.8398,-97.0727,0.0,3.2,56.0,3.8,'11111222,11111222,11111222' 
TCOON,ioos:station:TCOON:009:1,2013-11-01T08:30:00Z,27.8398,-97.0727,0.0,3.7,49.0,4.9,'11111222,11111222,11111222' 
TCOON,ioos:station:TCOON:009:1,2013-11-01T08:36:00Z,27.8398,-97.0727,0.0,3.1,70.0,4.1,'1111122,1111122,1111122' 
TCOON,ioos:station:TCOON:009:1,2013-11-01T08:42:00Z,27.8398,-97.0727,0.0,3.6,59.0,3.9,'11111222,11111222,11111222' 
TCOON,ioos:station:TCOON:009:1,2013-11-01T08:48:00Z,27.8398,-97.0727,0.0,4.6,60.0,5.1,'1111122,1111122,1111122' 
TCOON,ioos:station:TCOON:009:1,2013-11-01T08:54:00Z,27.8398,-97.0727,0.0,3.6,59.0,4.7,'11111222,11111222,11111222' 
TCOON,ioos:station:TCOON:009:1,2013-11-01T09:00:00Z,27.8398,-97.0727,0.0,3.8,55.0,4.1,'11111222,11111222,11111222' 
TCOON,ioos:station:TCOON:009:1,2013-11-01T09:06:00Z,27.8398,-97.0727,0.0,3.6,60.0,4.2,'11111222,11111222,11111222' 
TCOON,ioos:station:TCOON:009:1,2013-11-01T09:12:00Z,27.8398,-97.0727,0.0,3.7,64.0,4.1,'11111222,11111222,11111222' 
TCOON,ioos:station:TCOON:009:1,2013-11-01T09:18:00Z,27.8398,-97.0727,0.0,2.8,68.0,4.1,'11111222,11111222,11111222' 
TCOON,ioos:station:TCOON:009:1,2013-11-01T09:24:00Z,27.8398,-97.0727,0.0,3.5,74.0,4.2,'11111222,11111222,11111222' 
TCOON,ioos:station:TCOON:009:1,2013-11-01T09:30:00Z,27.8398,-97.0727,0.0,3.4,77.0,4.4,'11111222,11111222,11111222' 
TCOON,ioos:station:TCOON:009:1,2013-11-01T09:36:00Z,27.8398,-97.0727,0.0,3.8,80.0,4.9,'11111222,11111222,11111222' 
TCOON,ioos:station:TCOON:009:1,2013-11-01T09:42:00Z,27.8398,-97.0727,0.0,3.7,76.0,4.6,'11111222,11111222,11111222' 
TCOON,ioos:station:TCOON:009:1,2013-11-01T09:48:00Z,27.8398,-97.0727,0.0,4.1,75.0,5.3,'11111222,11111222,11111222' 
TCOON,ioos:station:TCOON:009:1,2013-11-01T09:54:00Z,27.8398,-97.0727,0.0,3.3,80.0,4.6,'11111222,11111222,11111222' 
TCOON,ioos:station:TCOON:009:1,2013-11-01T10:00:00Z,27.8398,-97.0727,0.0,3.0,89.0,4.8,'11111222,11111222,11111222' 
TCOON,ioos:station:TCOON:009:1,2013-11-01T10:06:00Z,27.8398,-97.0727,0.0,3.4,90.0,5.1,'11111222,11111222,11111222' 
TCOON,ioos:station:TCOON:009:1,2013-11-01T10:12:00Z,27.8398,-97.0727,0.0,3.5,97.0,4.6,'11111222,11111222,11111222' 
TCOON,ioos:station:TCOON:009:1,2013-11-01T10:18:00Z,27.8398,-97.0727,0.0,3.3,95.0,4.5,'11111222,11111222,11111222' 
TCOON,ioos:station:TCOON:009:1,2013-11-01T10:24:00Z,27.8398,-97.0727,0.0,3.2,92.0,5.3,'11111222,11111222,11111222' 
TCOON,ioos:station:TCOON:009:1,2013-11-01T10:30:00Z,27.8398,-97.0727,0.0,3.1,100.0,4.5,'11111222,11111222,11111222' 
TCOON,ioos:station:TCOON:009:1,2013-11-01T10:36:00Z,27.8398,-97.0727,0.0,3.6,100.0,4.6,'1111122,1111122,1111122' 
TCOON,ioos:station:TCOON:009:1,2013-11-01T10:42:00Z,27.8398,-97.0727,0.0,3.9,97.0,5.1,'11111222,11111222,11111222' 
TCOON,ioos:station:TCOON:009:1,2013-11-01T10:48:00Z,27.8398,-97.0727,0.0,3.8,95.0,5.0,'11111222,11111222,11111222' 
TCOON,ioos:station:TCOON:009:1,2013-11-01T10:54:00Z,27.8398,-97.0727,0.0,3.6,100.0,4.6,'1111122,1111122,1111122' 
TCOON,ioos:station:TCOON:009:1,2013-11-01T11:00:00Z,27.8398,-97.0727,0.0,3.6,96.0,4.3,'11111222,11111222,11111222' 
TCOON,ioos:station:TCOON:009:1,2013-11-01T11:06:00Z,27.8398,-97.0727,0.0,3.1,97.0,5.5,'11111222,11111222,11111222' 
TCOON,ioos:station:TCOON:009:1,2013-11-01T11:12:00Z,27.8398,-97.0727,0.0,3.4,101.0,5.0,'11111222,11111222,11111222' 
TCOON,ioos:station:TCOON:009:1,2013-11-01T11:18:00Z,27.8398,-97.0727,0.0,3.5,99.0,5.3,'11111222,11111222,11111222' 
TCOON,ioos:station:TCOON:009:1,2013-11-01T11:24:00Z,27.8398,-97.0727,0.0,3.8,98.0,5.3,'11111222,11111222,11111222' 
TCOON,ioos:station:TCOON:009:1,2013-11-01T11:30:00Z,27.8398,-97.0727,0.0,3.3,104.0,4.9,'11111222,11111222,11111222' 
TCOON,ioos:station:TCOON:009:1,2013-11-01T11:36:00Z,27.8398,-97.0727,0.0,3.4,98.0,5.1,'11111222,11111222,11111222' 
TCOON,ioos:station:TCOON:009:1,2013-11-01T11:42:00Z,27.8398,-97.0727,0.0,4.1,103.0,5.3,'11111222,11111222,11111222' 
TCOON,ioos:station:TCOON:009:1,2013-11-01T11:48:00Z,27.8398,-97.0727,0.0,4.1,100.0,5.1,'1111122,1111122,1111122' 
TCOON,ioos:station:TCOON:009:1,2013-11-01T11:54:00Z,27.8398,-97.0727,0.0,3.5,99.0,4.9,'11111222,11111222,11111222' 
TCOON,ioos:station:TCOON:009:1,2013-11-01T12:00:00Z,27.8398,-97.0727,0.0,3.7,104.0,5.7,'11111222,11111222,11111222' 
TCOON,ioos:station:TCOON:009:1,2013-11-01T12:06:00Z,27.8398,-97.0727,0.0,3.4,109.0,5.1,'11111222,11111222,11111222' 
TCOON,ioos:station:TCOON:009:1,2013-11-01T12:12:00Z,27.8398,-97.0727,0.0,3.5,106.0,5.6,'11111222,11111222,11111222' 
TCOON,ioos:station:TCOON:009:1,2013-11-01T12:18:00Z,27.8398,-97.0727,0.0,3.2,109.0,4.9,'11111222,11111222,11111222' 
TCOON,ioos:station:TCOON:009:1,2013-11-01T12:24:00Z,27.8398,-97.0727,0.0,3.5,107.0,5.0,'11111222,11111222,11111222' 
TCOON,ioos:station:TCOON:009:1,2013-11-01T12:30:00Z,27.8398,-97.0727,0.0,3.6,110.0,4.6,'1111122,1111122,1111122' 
TCOON,ioos:station:TCOON:009:1,2013-11-01T12:36:00Z,27.8398,-97.0727,0.0,3.3,113.0,5.6,'11111222,11111222,11111222' 
TCOON,ioos:station:TCOON:009:1,2013-11-01T12:42:00Z,27.8398,-97.0727,0.0,3.7,107.0,5.1,'11111222,11111222,11111222' 
TCOON,ioos:station:TCOON:009:1,2013-11-01T12:48:00Z,27.8398,-97.0727,0.0,3.1,110.0,4.6,'1111122,1111122,1111122' 
TCOON,ioos:station:TCOON:009:1,2013-11-01T12:54:00Z,27.8398,-97.0727,0.0,3.3,110.0,4.6,'11111222,11111222,11111222' 
TCOON,ioos:station:TCOON:009:1,2013-11-01T13:00:00Z,27.8398,-97.0727,0.0,3.6,113.0,4.7,'11111222,11111222,11111222' 
TCOON,ioos:station:TCOON:009:1,2013-11-01T13:06:00Z,27.8398,-97.0727,0.0,3.4,118.0,4.3,'11111222,11111222,11111222' 
TCOON,ioos:station:TCOON:009:1,2013-11-01T13:12:00Z,27.8398,-97.0727,0.0,3.4,115.0,5.1,'11111222,11111222,11111222' 
TCOON,ioos:station:TCOON:009:1,2013-11-01T13:18:00Z,27.8398,-97.0727,0.0,3.3,120.0,4.2,'11111222,11111222,11111222' 
TCOON,ioos:station:TCOON:009:1,2013-11-01T13:24:00Z,27.8398,-97.0727,0.0,2.5,110.0,3.7,'11111222,11111222,11111222' 
TCOON,ioos:station:TCOON:009:1,2013-11-01T13:30:00Z,27.8398,-97.0727,0.0,2.6,113.0,3.5,'11111222,11111222,11111222' 
TCOON,ioos:station:TCOON:009:1,2013-11-01T13:36:00Z,27.8398,-97.0727,0.0,3.1,120.0,4.1,'1111122,1111122,1111122' 
TCOON,ioos:station:TCOON:009:1,2013-11-01T13:42:00Z,27.8398,-97.0727,0.0,2.8,112.0,5.3,'11111222,11111222,11111222' 
TCOON,ioos:station:TCOON:009:1,2013-11-01T13:48:00Z,27.8398,-97.0727,0.0,2.6,120.0,4.1,'1111122,1111122,1111122' 
TCOON,ioos:station:TCOON:009:1,2013-11-01T13:54:00Z,27.8398,-97.0727,0.0,2.6,118.0,3.6,'11111222,11111222,11111222' 
TCOON,ioos:station:TCOON:009:1,2013-11-01T14:00:00Z,27.8398,-97.0727,0.0,2.9,119.0,4.8,'11111222,11111222,11111222' 
TCOON,ioos:station:TCOON:009:1,2013-11-01T14:06:00Z,27.8398,-97.0727,0.0,3.5,111.0,4.4,'11111222,11111222,11111222' 
TCOON,ioos:station:TCOON:009:1,2013-11-01T14:12:00Z,27.8398,-97.0727,0.0,3.4,116.0,4.9,'11111222,11111222,11111222' 
TCOON,ioos:station:TCOON:009:1,2013-11-01T14:18:00Z,27.8398,-97.0727,0.0,3.1,119.0,4.8,'11111222,11111222,11111222' 
TCOON,ioos:station:TCOON:009:1,2013-11-01T14:24:00Z,27.8398,-97.0727,0.0,2.8,119.0,5.0,'11111222,11111222,11111222' 
TCOON,ioos:station:TCOON:009:1,2013-11-01T14:30:00Z,27.8398,-97.0727,0.0,3.5,115.0,4.6,'11111222,11111222,11111222' 
TCOON,ioos:station:TCOON:009:1,2013-11-01T14:36:00Z,27.8398,-97.0727,0.0,4.1,110.0,5.7,'1111122,1111122,1111122' 
TCOON,ioos:station:TCOON:009:1,2013-11-01T14:42:00Z,27.8398,-97.0727,0.0,3.1,114.0,6.0,'11111222,11111222,11111222' 
TCOON,ioos:station:TCOON:009:1,2013-11-01T14:48:00Z,27.8398,-97.0727,0.0,3.7,112.0,5.1,'11111222,11111222,11111222' 
TCOON,ioos:station:TCOON:009:1,2013-11-01T14:54:00Z,27.8398,-97.0727,0.0,4.2,110.0,5.4,'11111222,11111222,11111222' 
TCOON,ioos:station:TCOON:009:1,2013-11-01T15:00:00Z,27.8398,-97.0727,0.0,4.1,110.0,5.7,'1111122,1111122,1111122' 
TCOON,ioos:station:TCOON:009:1,2013-11-01T15:06:00Z,27.8398,-97.0727,0.0,4.3,109.0,5.6,'11111222,11111222,11111222' 
TCOON,ioos:station:TCOON:009:1,2013-11-01T15:12:00Z,27.8398,-97.0727,0.0,4.2,124.0,5.1,'11111222,11111222,11111222' 
TCOON,ioos:station:TCOON:009:1,2013-11-01T15:18:00Z,27.8398,-97.0727,0.0,3.7,111.0,5.3,'11111222,11111222,11111222' 
TCOON,ioos:station:TCOON:009:1,2013-11-01T15:24:00Z,27.8398,-97.0727,0.0,3.4,113.0,5.7,'11111222,11111222,11111222' 
TCOON,ioos:station:TCOON:009:1,2013-11-01T15:30:00Z,27.8398,-97.0727,0.0,3.8,119.0,4.8,'11111222,11111222,11111222' 
TCOON,ioos:station:TCOON:009:1,2013-11-01T15:36:00Z,27.8398,-97.0727,0.0,4.6,113.0,6.0,'11111222,11111222,11111222' 
TCOON,ioos:station:TCOON:009:1,2013-11-01T15:42:00Z,27.8398,-97.0727,0.0,3.9,106.0,5.6,'11111222,11111222,11111222' 
TCOON,ioos:station:TCOON:009:1,2013-11-01T15:48:00Z,27.8398,-97.0727,0.0,4.1,120.0,5.7,'1111122,1111122,1111122' 
TCOON,ioos:station:TCOON:009:1,2013-11-01T15:54:00Z,27.8398,-97.0727,0.0,4.3,117.0,5.9,'11111222,11111222,11111222' 
TCOON,ioos:station:TCOON:009:1,2013-11-01T16:00:00Z,27.8398,-97.0727,0.0,3.9,124.0,5.1,'11111222,11111222,11111222' 
TCOON,ioos:station:TCOON:009:1,2013-11-01T16:06:00Z,27.8398,-97.0727,0.0,4.1,103.0,5.4,'11111222,11111222,11111222' 
TCOON,ioos:station:TCOON:009:1,2013-11-01T16:12:00Z,27.8398,-97.0727,0.0,5.5,111.0,7.0,'11111222,11111222,11111222' 
TCOON,ioos:station:TCOON:009:1,2013-11-01T16:18:00Z,27.8398,-97.0727,0.0,5.7,111.0,6.7,'11111222,11111222,11111222' 
TCOON,ioos:station:TCOON:009:1,2013-11-01T16:24:00Z,27.8398,-97.0727,0.0,4.7,99.0,6.3,'11111222,11111222,11111222' 
TCOON,ioos:station:TCOON:009:1,2013-11-01T16:30:00Z,27.8398,-97.0727,0.0,4.7,109.0,6.7,'11111222,11111222,11111222' 
TCOON,ioos:station:TCOON:009:1,2013-11-01T16:36:00Z,27.8398,-97.0727,0.0,4.6,107.0,6.4,'11111222,11111222,11111222' 
TCOON,ioos:station:TCOON:009:1,2013-11-01T16:42:00Z,27.8398,-97.0727,0.0,3.5,120.0,6.0,'11111222,11111222,11111222' 
TCOON,ioos:station:TCOON:009:1,2013-11-01T16:48:00Z,27.8398,-97.0727,0.0,3.1,110.0,6.2,'1111122,1111122,1111122' 
TCOON,ioos:station:TCOON:009:1,2013-11-01T16:54:00Z,27.8398,-97.0727,0.0,5.4,117.0,6.3,'11111222,11111222,11111222' 
TCOON,ioos:station:TCOON:009:1,2013-11-01T17:00:00Z,27.8398,-97.0727,0.0,4.3,117.0,6.6,'11111222,11111222,11111222' 
TCOON,ioos:station:TCOON:009:1,2013-11-01T17:06:00Z,27.8398,-97.0727,0.0,4.1,111.0,6.4,'11111222,11111222,11111222' 
TCOON,ioos:station:TCOON:009:1,2013-11-01T17:12:00Z,27.8398,-97.0727,0.0,4.1,112.0,6.5,'11111222,11111222,11111222' 
TCOON,ioos:station:TCOON:009:1,2013-11-01T17:18:00Z,27.8398,-97.0727,0.0,3.5,129.0,5.9,'11111222,11111222,11111222' 
TCOON,ioos:station:TCOON:009:1,2013-11-01T17:24:00Z,27.8398,-97.0727,0.0,4.1,127.0,5.9,'11111222,11111222,11111222' 
TCOON,ioos:station:TCOON:009:1,2013-11-01T17:30:00Z,27.8398,-97.0727,0.0,4.1,130.0,6.2,'1111122,1111122,1111122' 
TCOON,ioos:station:TCOON:009:1,2013-11-01T17:36:00Z,27.8398,-97.0727,0.0,3.8,141.0,5.7,'11111222,11111222,11111222' 
TCOON,ioos:station:TCOON:009:1,2013-11-01T17:42:00Z,27.8398,-97.0727,0.0,5.0,130.0,6.8,'11111222,11111222,11111222' 
TCOON,ioos:station:TCOON:009:1,2013-11-01T17:48:00Z,27.8398,-97.0727,0.0,4.1,130.0,6.2,'1111122,1111122,1111122' 
TCOON,ioos:station:TCOON:009:1,2013-11-01T17:54:00Z,27.8398,-97.0727,0.0,4.2,132.0,6.5,'11111222,11111222,11111222' 
TCOON,ioos:station:TCOON:009:1,2013-11-01T18:00:00Z,27.8398,-97.0727,0.0,5.8,126.0,7.0,'11111222,11111222,11111222' 
TCOON,ioos:station:TCOON:009:1,2013-11-01T18:06:00Z,27.8398,-97.0727,0.0,5.1,116.0,6.9,'11111222,11111222,11111222' 
TCOON,ioos:station:TCOON:009:1,2013-11-01T18:12:00Z,27.8398,-97.0727,0.0,4.2,128.0,6.8,'11111222,11111222,11111222' 
TCOON,ioos:station:TCOON:009:1,2013-11-01T18:18:00Z,27.8398,-97.0727,0.0,3.9,128.0,6.8,'11111222,11111222,11111222' 
TCOON,ioos:station:TCOON:009:1,2013-11-01T18:24:00Z,27.8398,-97.0727,0.0,4.8,137.0,6.1,'11111222,11111222,11111222' 
TCOON,ioos:station:TCOON:009:1,2013-11-01T18:30:00Z,27.8398,-97.0727,0.0,3.7,122.0,5.5,'11111222,11111222,11111222' 
TCOON,ioos:station:TCOON:009:1,2013-11-01T18:36:00Z,27.8398,-97.0727,0.0,4.1,130.0,6.2,'1111122,1111122,1111122' 
TCOON,ioos:station:TCOON:009:1,2013-11-01T18:42:00Z,27.8398,-97.0727,0.0,4.4,121.0,6.5,'11111222,11111222,11111222' 
TCOON,ioos:station:TCOON:009:1,2013-11-01T18:48:00Z,27.8398,-97.0727,0.0,3.1,120.0,6.2,'1111122,1111122,1111122' 
TCOON,ioos:station:TCOON:009:1,2013-11-01T18:54:00Z,27.8398,-97.0727,0.0,4.0,126.0,6.6,'11111222,11111222,11111222' 
TCOON,ioos:station:TCOON:009:1,2013-11-01T19:00:00Z,27.8398,-97.0727,0.0,3.5,134.0,6.2,'11111222,11111222,11111222' 
TCOON,ioos:station:TCOON:009:1,2013-11-01T19:06:00Z,27.8398,-97.0727,0.0,4.1,127.0,5.6,'11111222,11111222,11111222' 
TCOON,ioos:station:TCOON:009:1,2013-11-01T19:12:00Z,27.8398,-97.0727,0.0,4.3,125.0,6.6,'11111222,11111222,11111222' 
TCOON,ioos:station:TCOON:009:1,2013-11-01T19:18:00Z,27.8398,-97.0727,0.0,4.1,133.0,6.6,'11111222,11111222,11111222' 
TCOON,ioos:station:TCOON:009:1,2013-11-01T19:24:00Z,27.8398,-97.0727,0.0,3.9,125.0,6.6,'11111222,11111222,11111222' 
TCOON,ioos:station:TCOON:009:1,2013-11-01T19:30:00Z,27.8398,-97.0727,0.0,3.6,123.0,6.1,'11111222,11111222,11111222' 
TCOON,ioos:station:TCOON:009:1,2013-11-01T19:36:00Z,27.8398,-97.0727,0.0,4.1,130.0,5.7,'1111122,1111122,1111122' 
TCOON,ioos:station:TCOON:009:1,2013-11-01T19:42:00Z,27.8398,-97.0727,0.0,3.6,151.0,5.1,'11111222,11111222,11111222' 
TCOON,ioos:station:TCOON:009:1,2013-11-01T19:48:00Z,27.8398,-97.0727,0.0,4.2,129.0,6.5,'11111222,11111222,11111222' 
TCOON,ioos:station:TCOON:009:1,2013-11-01T19:54:00Z,27.8398,-97.0727,0.0,3.5,127.0,6.0,'11111222,11111222,11111222' 
TCOON,ioos:station:TCOON:009:1,2013-11-01T20:00:00Z,27.8398,-97.0727,0.0,4.2,130.0,7.0,'11111222,11111222,11111222' 
TCOON,ioos:station:TCOON:009:1,2013-11-01T20:06:00Z,27.8398,-97.0727,0.0,3.9,136.0,6.2,'11111222,11111222,11111222' 
TCOON,ioos:station:TCOON:009:1,2013-11-01T20:12:00Z,27.8398,-97.0727,0.0,4.7,132.0,6.8,'11111222,11111222,11111222' 
TCOON,ioos:station:TCOON:009:1,2013-11-01T20:18:00Z,27.8398,-97.0727,0.0,4.0,125.0,6.7,'11111222,11111222,11111222' 
TCOON,ioos:station:TCOON:009:1,2013-11-01T20:24:00Z,27.8398,-97.0727,0.0,4.3,140.0,6.4,'11111222,11111222,11111222' 